Location: Lane
(33.5226°N, 79.8788°W)
Time: 15:49:00
(UTC+00:00)

Tiros 1 - All Passes

Search period start: 26 September 2022 00:00
Search period end: 06 October 2022 00:00
Orbit: 629 x 663 km, 48.4° (Epoch: 25 September)

Date Brightness Start Highest point End Pass type
(mag) Time Alt. Az. Time Alt. Az. Time Alt. Az.
26 Sep - 05:05:51 10° S 05:09:19 20° SE 05:12:47 10° E night (unlit)
26 Sep - 06:46:24 10° WSW 06:51:09 64° NW 06:55:53 10° NE visible
26 Sep - 08:30:39 10° WNW 08:34:02 19° NNW 08:37:23 10° NNE visible
26 Sep - 10:15:32 10° NNW 10:17:43 13° N 10:19:54 10° NNE visible
26 Sep - 11:57:29 10° NNW 12:01:16 23° NNE 12:05:02 10° ENE daylight
26 Sep - 13:39:10 10° NW 13:43:51 80° SW 13:48:28 10° SE daylight
26 Sep - 15:24:21 10° WSW 15:25:23 11° SW 15:26:26 10° SW daylight
27 Sep - 05:30:04 10° SSW 05:34:41 49° SE 05:39:18 10° ENE night (unlit)
27 Sep - 07:12:42 10° W 07:17:00 32° NNW 07:21:16 10° NE visible
27 Sep - 08:57:50 10° NW 09:00:20 14° N 09:02:51 10° NNE visible
27 Sep - 10:41:18 10° NNW 10:44:07 15° NNE 10:46:55 10° NE visible
27 Sep - 12:22:48 10° NW 12:27:16 42° NNE 12:31:40 10° ESE daylight
27 Sep - 14:05:11 10° WNW 14:09:20 32° SW 14:13:25 10° SSE daylight
28 Sep - 04:15:17 10° S 04:18:30 18° SE 04:21:42 10° E night (unlit)
28 Sep - 05:55:29 10° WSW 06:00:16 71° NW 06:05:03 10° NE night (unlit)
28 Sep - 07:39:35 10° WNW 07:43:05 20° NNW 07:46:34 10° NNE visible
28 Sep - 09:24:34 10° NNW 09:26:46 13° N 09:28:57 10° NNE visible
28 Sep - 11:06:39 10° NNW 11:10:21 22° NNE 11:14:01 10° ENE daylight
28 Sep - 12:48:17 10° NW 12:53:00 89° SSW 12:57:38 10° SE daylight
28 Sep - 14:32:42 10° WSW 14:34:35 12° SW 14:36:28 10° SSW daylight
29 Sep - 04:39:18 10° SSW 04:43:50 44° SE 04:48:23 10° ENE night (unlit)
29 Sep - 06:21:42 10° W 06:26:05 35° NNW 06:30:28 10° NE night (unlit)
29 Sep - 08:06:45 10° NW 08:09:22 14° N 08:12:01 10° NNE visible
29 Sep - 09:50:26 10° NNW 09:53:09 15° NNE 09:55:52 10° NE visible
29 Sep - 11:31:57 10° NW 11:36:23 38° NNE 11:40:44 10° E daylight
29 Sep - 13:14:13 10° WNW 13:18:30 36° SW 13:22:43 10° SSE daylight
30 Sep - 03:24:47 10° SSE 03:27:40 16° SE 03:30:33 10° E night (unlit)
30 Sep - 05:04:35 10° SW 05:09:22 78° NW 05:14:11 10° NE night (unlit)
30 Sep - 06:48:31 10° WNW 06:52:09 21° NNW 06:55:45 10° NNE night (unlit)
30 Sep - 08:33:34 10° NNW 08:35:47 13° N 08:38:00 10° NNE visible
30 Sep - 10:15:48 10° NNW 10:19:25 21° NNE 10:23:00 10° ENE visible
30 Sep - 11:57:25 10° NW 12:02:08 83° NE 12:06:48 10° SE daylight
30 Sep - 13:41:21 10° W 13:43:46 14° SW 13:46:11 10° SSW daylight
01 Oct - 03:48:31 10° SSW 03:52:59 39° SE 03:57:27 10° ENE night (unlit)
01 Oct - 05:30:43 10° W 05:35:10 37° NNW 05:39:38 10° NE night (unlit)
01 Oct - 07:15:40 10° NW 07:18:25 15° N 07:21:09 10° NNE visible
01 Oct - 08:59:32 10° NNW 09:02:12 15° N 09:04:51 10° NE visible
01 Oct - 10:41:06 10° NW 10:45:28 36° NNE 10:49:47 10° E visible
01 Oct - 12:23:16 10° WNW 12:27:40 40° SW 12:31:59 10° SSE daylight
02 Oct - 02:34:20 10° SSE 02:36:50 14° SE 02:39:20 10° E night (unlit)
02 Oct - 04:13:42 10° SW 04:18:30 86° NW 04:23:19 10° NE night (unlit)
02 Oct - 05:57:28 10° WNW 06:01:12 22° NNW 06:04:56 10° NNE night (unlit)
02 Oct - 07:42:34 10° NNW 07:44:49 13° N 07:47:03 10° NNE visible
02 Oct - 09:24:57 10° NNW 09:28:29 20° NNE 09:31:59 10° ENE visible
02 Oct - 11:06:32 10° NW 11:11:16 75° NE 11:15:55 10° ESE daylight
02 Oct - 12:50:07 10° W 12:52:58 16° SW 12:55:47 10° SSW daylight
03 Oct - 02:57:46 10° SSW 03:02:07 35° SE 03:06:29 10° ENE night (unlit)
03 Oct - 04:39:43 10° WSW 04:44:15 40° NNW 04:48:47 10° NE night (unlit)
03 Oct - 06:24:35 10° NW 06:27:27 15° NNW 06:30:18 10° NNE night (unlit)
03 Oct - 08:08:38 10° NNW 08:11:14 14° N 08:13:48 10° NE visible
03 Oct - 09:50:15 10° NW 09:54:34 33° NNE 09:58:49 10° E visible
03 Oct - 11:32:19 10° WNW 11:36:49 45° SW 11:41:15 10° SSE daylight
04 Oct - 01:44:02 10° SSE 01:46:00 12° SE 01:47:59 10° ESE night (unlit)
04 Oct - 03:22:49 10° SW 03:27:37 86° SE 03:32:26 10° NE night (unlit)
04 Oct - 05:06:25 10° WNW 05:10:15 23° NNW 05:14:06 10° NNE night (unlit)
04 Oct - 06:51:33 10° NNW 06:53:50 13° N 06:56:06 10° NNE night (unlit)
04 Oct - 08:34:06 10° NNW 08:37:32 19° NNE 08:40:57 10° ENE visible
04 Oct - 10:15:39 10° NW 10:20:23 68° NE 10:25:03 10° ESE visible
04 Oct - 11:58:58 10° W 12:02:08 18° SW 12:05:17 10° S daylight
05 Oct - 02:07:02 10° SSW 02:11:16 32° SE 02:15:31 10° ENE night (unlit)
05 Oct - 03:48:45 10° WSW 03:53:20 44° NNW 03:57:56 10° NE night (unlit)
05 Oct - 05:33:30 10° NW 05:36:29 16° NNW 05:39:27 10° NNE night (unlit)
05 Oct - 07:17:43 10° NNW 07:20:15 14° N 07:22:46 10° NE visible
05 Oct - 08:59:23 10° NW 09:03:38 31° NNE 09:07:50 10° E visible
05 Oct - 10:41:22 10° WNW 10:45:57 51° SW 10:50:29 10° SSE visible
